Regional Weather Roundup
Issued by NWS Goodland, KS

Home | Current Version | Previous Version | Text Only | Print | Product List | Glossary Off
Versions: 1 2 3 4 5 6 7 8 9 10 11 12 13 14 15 16 17 18 19 20 21 22 23 24 25 26 27 28 29 30 31 32 33 34 35 36 37 38 39 40 41 42 43 44 45 46 47 48 49 50

000
ASUS43 KGLD 190859
RWRGLD

GOODLAND FORECAST AREA HOURLY WEATHER ROUNDUP
NATIONAL WEATHER SERVICE GOODLAND KS
200 AM MST MON FEB 19 2018

...OFFICIAL OBSERVATIONS...

CITY           SKY/WX    TMP DP  RH WIND       PRES   REMARKS
GOODLAND KS    CLOUDY    18  16  92 N24G36    29.71R WCI   0
HILL CITY KS   CLOUDY    25  23  92 N31G39    29.71R WCI   8
IMPERIAL NEB   LGT SNOW  14  11  87 N24G30    29.78R FOG     WCI  -5
MCCOOK NEB     CLOUDY    20  18  92 N24G31    29.76S FOG     WCI   3
AKRON CO       LGT SNOW  11   9  92 N18       29.71R FOG     WCI  -7
BURLINGTON CO  CLOUDY    18  17  96 N22G32    29.69R FOG     WCI   1
LIMON CO       CLOUDY    14  14 100 N17       29.63S FOG     WCI  -3
$$

...UNOFFICIAL OBSERVATIONS...

CITY           SKY/WX    TMP DP  RH WIND       PRES   REMARKS
LENORA KS        N/A     23  32 100 CALM        N/A
NORTON KS      CLOUDY    23  18  80 N24       29.72  HAZE    WCI   7
SHARON SPRINGS   N/A     23  21  91 N20G26      N/A  WCI   8
TRENTON NEB      N/A     17  32 100 NW15        N/A  WCI   2
KIT CARSON CO    N/A     18  15  88 MISG        N/A
$$




USA.gov is the U.S. government's official web portal to all federal, state and local government web resources and services.